Regional Weather Roundup
Issued by NWS

Home | Current Version | Previous Version | Text Only | Print | Product List | Glossary On
Versions: 1 2 3 4 5 6 7 8 9 10 11 12 13 14 15 16 17 18 19 20 21 22 23 24 25 26 27 28 29 30 31 32 33 34 35 36 37 38 39 40 41 42 43 44 45 46 47 48 49 50
000
ASUS43 KMPX 231210
RWRMN
WEATHER ROUNDUP FOR MINNESOTA
NATIONAL WEATHER SERVICE TWIN CITIES/CHANHASSEN MN
700 AM CDT TUE APR 23 2019


NOTE: "FAIR" INDICATES FEW OR NO CLOUDS BELOW 12,000 FEET WITH NO
SIGNIFICANT WEATHER AND/OR OBSTRUCTIONS TO VISIBILITY. N/A MEANS
CURRENT SKY AND/OR WEATHER CONDITIONS ARE NOT AVAILABLE.

MNZ060>063-068>070-231300-
   Twin Cities Metro

CITY           SKY/WX    TMP DP  RH WIND       PRES   REMARKS
TWIN CITIES    FAIR      37  33  85 N6        30.15R
6HR MIN TEMP:  36; 6HR MAX TEMP:  40;

ST PAUL        FAIR      35  33  92 NW6       30.16R WCI  30
CRYSTAL        FAIR      33  33 100 CALM      30.13R
BLAINE         CLEAR     34  34 100 CALM      30.14R
LAKEVILLE      FAIR      37 N/A N/A CALM      30.14R
EDEN PRAIRIE   FAIR      37  34  89 N3        30.13R
6HR MIN TEMP:  36; 6HR MAX TEMP:  41;

SOUTH ST PAUL  FAIR      36  36  98 N5        30.14S
LAKE ELMO        N/A     36  36 100 N3        30.15S FOG
$$
MNZ001>005-007-008-013>017-022>024-027-028-231300-
   Northwest Minnesota

CITY           SKY/WX    TMP DP  RH WIND       PRES   REMARKS
BEMIDJI        FAIR      33  30  92 CALM      30.09R
HALLOCK        CLEAR     34  30  86 E5        30.09S WCI  30
ROSEAU         FAIR      34  28  80 CALM      30.10S
WARROAD        FAIR      32  28  86 CALM      30.10S
THIEF RVR FALL CLEAR     38  33  82 CALM      30.10S
CROOKSTON      CLEAR     36  34  93 CALM      30.11R
FOSSTON        CLEAR     32  30  93 CALM      30.10S
DETROIT LAKES  FAIR      37  34  87 CALM      30.12S
MOORHEAD       CLEAR     37  36  93 CALM      30.12F
PARK RAPIDS    FAIR      32  30  92 CALM      30.09S
MAHNOMEN       FAIR      33  32  96 S5        30.10S WCI  29
$$
MNZ006-009>011-018-025>026-231300-
   North Central Minnesota

CITY           SKY/WX    TMP DP  RH WIND       PRES   REMARKS
BAUDETTE       FAIR      35  32  88 CALM      30.09S
FLAG ISLAND    FAIR      34  30  86 CALM      30.09S
INTL FALLS     FAIR      37  33  85 SE3       30.10R
6HR MIN TEMP:  32; 6HR MAX TEMP:  49;

WASKISH        FAIR      34  32  93 CALM      30.08S
BIG FORK       FAIR      36  34  93 CALM      30.12S
LONGVILLE      FAIR      32  32 100 CALM      30.09R
GRAND RAPIDS   FAIR      30  29  96 CALM      30.11S
ORR            FAIR      34  30  86 CALM      30.08S
WALKER         FAIR      35  34  96 CALM      30.09R
$$
MNZ012-019>021-037-231300-
   Northeast Minnesota

CITY           SKY/WX    TMP DP  RH WIND       PRES   REMARKS
DULUTH         FAIR      34  32  92 CALM      30.10S
6HR MIN TEMP:  29; 6HR MAX TEMP:  35;

ELY            CLOUDY    30  30 100 CALM      30.10F
HIBBING        MOCLDY    28  27  96 CALM      30.11R
EVELETH        CLOUDY    30  30 100 CALM      30.12S
DULUTH HARBOR  FAIR      34  30  86 S3        30.14R
TWO HARBORS    FAIR      30  25  80 CALM      30.11S
SILVER BAY     FAIR      28  27  93 CALM      30.11S
GRAND MARAIS     N/A     38  28  67 NW5       30.11R
G MARAIS ARPRT FAIR      36  23  60 N7        30.08R
$$
MNZ029>031-032-039>041-046>048-054>057-064-231300-
   West Central Minnesota

CITY           SKY/WX    TMP DP  RH WIND       PRES   REMARKS
FERGUS FALLS   FAIR      39  36  87 S3        30.11R
WHEATON        CLEAR     37  36  93 CALM      30.14S
MORRIS         CLEAR     36  36 100 S3        30.08S
ALEXANDRIA     FAIR      41  34  76 SW9       30.13R
ELBOW LAKE     FAIR      34  33  99 S8        30.13S WCI  27
WADENA         FAIR      37  36  93 W5        30.10S
GLENWOOD       FAIR      36  34  93 SW6       30.13S
APPLETON         N/A     39  36  87 SW3       30.13S
BENSON           N/A     34  34 100 S3        30.15S FOG
ORTONVILLE     CLEAR     37  36  93 SW3       30.13S
MADISON        CLEAR     39  37  93 SW6       30.14S
WILLMAR        FAIR      30  30 100 CALM      30.17R VSB 1
$$
MNZ033>034-036-042>043-049>051-058-059-231300-
   Central Minnesota

CITY           SKY/WX    TMP DP  RH WIND       PRES   REMARKS
ST CLOUD       CLEAR     30  30 100 CALM      30.13S
6HR MIN TEMP:  30; 6HR MAX TEMP:  36;

SAUK CENTRE    FOG       32  32  99 CALM      30.13S VSB<1/4
PAYNESVILLE    FOG       31  32 100 SW3       30.15R VSB 3/4
AITKIN         FAIR      27  25  93 CALM      30.10S
PINE RIVER     FAIR      30  28  93 CALM      30.13S
BRAINERD       FAIR      29  26  89 CALM      30.12S
STAPLES        FAIR      30  30 100 S3        30.11R
LONG PRAIRIE   FAIR      32  32 100 SW3       30.13S
LITTLE FALLS   FAIR      30  30 100 CALM      30.13S FOG
LITCHFIELD     FAIR      36 N/A N/A CALM      30.15S
BUFFALO        FAIR      33  32  95 MISG      30.16R
MAPLE LAKE     FAIR      33  33  99 CALM      30.15S
HUTCHINSON     CLEAR     34  34  99 CALM      30.16R
$$
MNZ037-044-045-052-053-231300-
   East Central Minnesota

CITY           SKY/WX    TMP DP  RH WIND       PRES   REMARKS
PRINCETON      FOG       28  27  93 CALM      30.14S VSB 1/2
MORA           FAIR      30  28  93 CALM      30.15R FOG
CAMBRIDGE      FAIR      32  25  74 CALM      30.14R HAZE
RUSH CITY      FOG       29  29  96 CALM      30.14R VSB 3/4
MOOSE LAKE     FAIR      28  28 100 CALM      30.11S
CLOQUET        FAIR      30  28  93 CALM      30.11S
MCGREGOR       FAIR      30  30 100 CALM      30.12S
$$
MNZ071>073-080-081-089-090-097-098-231300-
   Southwest Minnesota

CITY           SKY/WX    TMP DP  RH WIND       PRES   REMARKS
MONTEVIDEO     CLEAR     37  36  93 W5        30.15S
GRANITE FALLS  CLEAR     35  34  96 S3        30.17R
MARSHALL       CLEAR     37  34  89 SW3       30.16R
REDWOOD FALLS  CLEAR     36  35  96 CALM      30.15S
OLIVIA         CLEAR     34  34 100 CALM      30.15S FOG
PIPESTONE      CLEAR     36  36 100 CALM      30.15R
WINDOM         CLEAR     36  34  93 CALM      30.15R
WORTHINGTON    CLEAR     35  34  96 NW3       30.17R
JACKSON        CLEAR     34  32  93 NW3       30.16R
TRACY          CLEAR     37  36  94 W5        30.15R
SLAYTON        CLEAR     33  32  97 W3        30.16
$$
MNZ065>067-074>077-082>085-091>093-231300-
   South Central Minnesota

CITY           SKY/WX    TMP DP  RH WIND       PRES   REMARKS
MANKATO        FAIR      35  34  96 NW6       30.15R WCI  30
NEW ULM        CLEAR     36  34  93 NW3       30.16R
ST JAMES       CLEAR     36  34  93 NW5       30.15R
FAIRMONT       CLEAR     38  36  92 NW7       30.16R
GLENCOE        FAIR      36  36 100 CALM      30.15R
OWATONNA       FAIR      36  34  93 N3        30.13S FOG
WASECA         FAIR      36  36 100 N7        30.14S
ALBERT LEA     FAIR      37  37 100 N6        30.13R
$$
MNZ078>079-086>088-094>096-231300-
   Southeast Minnesota

CITY           SKY/WX    TMP DP  RH WIND       PRES   REMARKS
ROCHESTER      FAIR      37  35  92 N8        30.11R
6HR MIN TEMP:  36; 6HR MAX TEMP:  44;

RED WING       CLOUDY    37  36  93 NW3       30.13R FOG
DODGE CENTER   FAIR      36  36 100 N8        30.12R FOG
WINONA         FAIR      41  36  81 NW8       30.11R
AUSTIN           N/A     39  34  81 N5        30.12R
PRESTON        FAIR      37  35  94 N7        30.11R
$$
ABBREVIATIONS USED IN REMARKS
   TC - TEMPERATURES IN CELSIUS
  WCI - WIND CHILL INDEX
   HX - HEAT INDEX
  VSB - VISIBILITY
$$



USA.gov is the U.S. government's official web portal to all federal, state and local government web resources and services.